Time,TemperatureF,DewpointF,PressureIn,WindDirection,WindDirectionDegrees,WindSpeedMPH,WindSpeedGustMPH,Humidity,HourlyPrecipIn,Conditions,Clouds,dailyrainin,SoftwareType,DateUTC
2013-01-16 00:07:00,34.2,33.0,30.11,NNE,19,0.0,6.0,95,0.12,,,0.00,weatherlink.com 1.10,2013-01-16 05:07:00,
2013-01-16 00:22:00,34.0,33.0,30.09,ENE,76,3.0,5.0,95,0.13,,,0.03,weatherlink.com 1.10,2013-01-16 05:22:00,
2013-01-16 00:38:00,33.9,33.0,30.10,NE,53,3.0,5.0,96,0.14,,,0.06,weatherlink.com 1.10,2013-01-16 05:38:00,
2013-01-16 00:53:00,33.8,33.0,30.10,NNE,27,2.0,4.0,96,0.16,,,0.11,weatherlink.com 1.10,2013-01-16 05:53:00,
2013-01-16 01:08:00,33.6,33.0,30.10,NNE,32,0.0,5.0,96,0.15,,,0.15,weatherlink.com 1.10,2013-01-16 06:08:00,
2013-01-16 01:23:00,33.5,33.0,30.11,NNE,31,1.0,4.0,96,0.17,,,0.20,weatherlink.com 1.10,2013-01-16 06:23:00,
2013-01-16 01:38:00,33.4,32.0,30.11,NNE,29,1.0,4.0,96,0.14,,,0.21,weatherlink.com 1.10,2013-01-16 06:38:00,
2013-01-16 01:53:00,33.4,32.0,30.11,ESE,102,0.0,3.0,96,0.12,,,0.23,weatherlink.com 1.10,2013-01-16 06:53:00,
2013-01-16 02:08:00,33.3,32.0,30.10,SE,136,0.0,4.0,96,0.11,,,0.26,weatherlink.com 1.10,2013-01-16 07:08:00,
2013-01-16 02:23:00,33.2,32.0,30.09,ENE,70,0.0,4.0,96,0.07,,,0.27,weatherlink.com 1.10,2013-01-16 07:23:00,
2013-01-16 02:38:00,33.3,33.0,30.08,NE,41,0.0,3.0,97,0.06,,,0.27,weatherlink.com 1.10,2013-01-16 07:38:00,
2013-01-16 02:53:00,33.4,33.0,30.08,NE,41,0.0,0.0,97,0.03,,,0.27,weatherlink.com 1.10,2013-01-16 07:53:00,
2013-01-16 03:08:00,33.4,33.0,30.07,NE,41,0.0,0.0,97,0.00,,,0.27,weatherlink.com 1.10,2013-01-16 08:08:00,
2013-01-16 03:23:00,33.4,33.0,30.07,NNE,21,0.0,1.0,97,0.01,,,0.28,weatherlink.com 1.10,2013-01-16 08:23:00,
2013-01-16 03:39:00,33.5,33.0,30.04,ENE,74,1.0,3.0,97,0.01,,,0.28,weatherlink.com 1.10,2013-01-16 08:39:00,
2013-01-16 03:53:00,33.4,33.0,30.04,SE,140,0.0,1.0,97,0.01,,,0.28,weatherlink.com 1.10,2013-01-16 08:53:00,
2013-01-16 04:08:00,33.4,33.0,30.03,SE,140,0.0,0.0,97,0.01,,,0.28,weatherlink.com 1.10,2013-01-16 09:08:00,
2013-01-16 04:23:00,33.5,33.0,30.00,NNE,28,0.0,2.0,97,0.01,,,0.29,weatherlink.com 1.10,2013-01-16 09:23:00,
2013-01-16 04:38:00,33.5,33.0,30.01,North,10,0.0,1.0,97,0.01,,,0.29,weatherlink.com 1.10,2013-01-16 09:38:00,
2013-01-16 04:53:00,33.5,33.0,30.02,NW,325,0.0,2.0,97,0.01,,,0.29,weatherlink.com 1.10,2013-01-16 09:53:00,
2013-01-16 05:08:00,33.5,33.0,30.04,NNW,334,0.0,2.0,97,0.02,,,0.30,weatherlink.com 1.10,2013-01-16 10:08:00,
2013-01-16 05:23:00,33.6,33.0,30.02,NE,42,0.0,2.0,97,0.01,,,0.30,weatherlink.com 1.10,2013-01-16 10:23:00,
2013-01-16 05:38:00,33.6,33.0,30.02,NNE,22,0.0,2.0,97,0.02,,,0.31,weatherlink.com 1.10,2013-01-16 10:38:00,
2013-01-16 05:53:00,33.6,33.0,30.02,ENE,71,1.0,1.0,97,0.03,,,0.32,weatherlink.com 1.10,2013-01-16 10:53:00,
2013-01-16 06:08:00,33.6,33.0,30.02,NE,53,0.0,2.0,97,0.04,,,0.34,weatherlink.com 1.10,2013-01-16 11:08:00,
2013-01-16 06:23:00,33.7,33.0,30.02,NE,49,2.0,2.0,97,0.05,,,0.35,weatherlink.com 1.10,2013-01-16 11:23:00,
2013-01-16 06:38:00,33.7,33.0,30.01,ESE,112,1.0,2.0,97,0.06,,,0.37,weatherlink.com 1.10,2013-01-16 11:38:00,
2013-01-16 06:53:00,33.7,33.0,29.99,NE,45,1.0,2.0,97,0.07,,,0.39,weatherlink.com 1.10,2013-01-16 11:53:00,
2013-01-16 07:08:00,33.6,33.0,30.00,North,11,0.0,1.0,97,0.06,,,0.40,weatherlink.com 1.10,2013-01-16 12:08:00,
2013-01-16 07:23:00,33.6,33.0,29.99,ESE,117,0.0,2.0,97,0.06,,,0.41,weatherlink.com 1.10,2013-01-16 12:23:00,
2013-01-16 07:38:00,33.7,33.0,29.98,NE,35,0.0,1.0,97,0.04,,,0.41,weatherlink.com 1.10,2013-01-16 12:38:00,
2013-01-16 07:53:00,33.7,33.0,30.00,NW,308,2.0,2.0,97,0.04,,,0.43,weatherlink.com 1.10,2013-01-16 12:53:00,
2013-01-16 08:08:00,33.8,33.0,29.99,WSW,250,0.0,2.0,97,0.04,,,0.44,weatherlink.com 1.10,2013-01-16 13:08:00,
2013-01-16 08:23:00,33.9,33.0,30.00,West,274,0.0,2.0,97,0.05,,,0.46,weatherlink.com 1.10,2013-01-16 13:23:00,
2013-01-16 08:38:00,34.1,33.0,29.98,SSE,158,0.0,3.0,97,0.06,,,0.47,weatherlink.com 1.10,2013-01-16 13:38:00,
2013-01-16 08:53:00,34.2,34.0,29.98,South,179,2.0,6.0,97,0.05,,,0.48,weatherlink.com 1.10,2013-01-16 13:53:00,
2013-01-16 09:08:00,34.5,34.0,29.97,WSW,256,6.0,9.0,97,0.04,,,0.48,weatherlink.com 1.10,2013-01-16 14:08:00,
2013-01-16 09:23:00,34.8,34.0,29.98,WNW,285,0.0,2.0,97,0.03,,,0.49,weatherlink.com 1.10,2013-01-16 14:23:00,
2013-01-16 09:38:00,35.1,34.0,29.99,North,8,0.0,2.0,97,0.03,,,0.50,weatherlink.com 1.10,2013-01-16 14:38:00,
2013-01-16 09:53:00,35.5,35.0,29.97,WSW,252,1.0,3.0,97,0.02,,,0.50,weatherlink.com 1.10,2013-01-16 14:53:00,
2013-01-16 10:08:00,35.9,35.0,29.96,North,356,0.0,3.0,96,0.02,,,0.50,weatherlink.com 1.10,2013-01-16 15:08:00,
2013-01-16 10:23:00,36.1,35.0,29.96,ESE,119,0.0,3.0,97,0.02,,,0.51,weatherlink.com 1.10,2013-01-16 15:23:00,
2013-01-16 10:38:00,36.2,36.0,29.95,SSE,160,0.0,4.0,97,0.01,,,0.51,weatherlink.com 1.10,2013-01-16 15:38:00,
2013-01-16 10:54:00,36.4,36.0,29.92,SSW,210,2.0,5.0,97,0.01,,,0.51,weatherlink.com 1.10,2013-01-16 15:54:00,
2013-01-16 11:09:00,36.6,36.0,29.87,NNW,339,1.0,7.0,97,0.01,,,0.51,weatherlink.com 1.10,2013-01-16 16:09:00,
2013-01-16 11:24:00,37.1,36.0,29.85,SSW,192,0.0,5.0,97,0.00,,,0.51,weatherlink.com 1.10,2013-01-16 16:24:00,
2013-01-16 11:39:00,37.5,37.0,29.81,SSW,192,6.0,7.0,96,0.00,,,0.51,weatherlink.com 1.10,2013-01-16 16:39:00,
2013-01-16 11:54:00,37.7,37.0,29.83,SW,229,2.0,8.0,96,0.00,,,0.51,weatherlink.com 1.10,2013-01-16 16:54:00,
2013-01-16 12:09:00,37.8,37.0,29.83,NW,321,4.0,5.0,96,0.00,,,0.51,weatherlink.com 1.10,2013-01-16 17:09:00,
2013-01-16 12:24:00,37.8,37.0,29.82,SE,141,1.0,3.0,96,0.00,,,0.51,weatherlink.com 1.10,2013-01-16 17:24:00,
2013-01-16 12:39:00,38.0,37.0,29.84,NNW,344,2.0,4.0,96,0.00,,,0.51,weatherlink.com 1.10,2013-01-16 17:39:00,
2013-01-16 12:54:00,38.5,38.0,29.84,ENE,64,0.0,4.0,96,0.00,,,0.51,weatherlink.com 1.10,2013-01-16 17:54:00,
2013-01-16 13:09:00,38.5,38.0,29.84,South,181,0.0,6.0,96,0.00,,,0.51,weatherlink.com 1.10,2013-01-16 18:09:00,
2013-01-16 13:24:00,38.8,38.0,29.86,NW,316,0.0,7.0,95,0.00,,,0.51,weatherlink.com 1.10,2013-01-16 18:24:00,
2013-01-16 13:39:00,38.8,38.0,29.84,North,10,2.0,8.0,95,0.00,,,0.51,weatherlink.com 1.10,2013-01-16 18:39:00,
2013-01-16 13:54:00,38.3,37.0,29.88,NNE,19,2.0,9.0,95,0.00,,,0.51,weatherlink.com 1.10,2013-01-16 18:54:00,
2013-01-16 14:09:00,38.2,37.0,29.88,NNE,20,0.0,6.0,95,0.00,,,0.51,weatherlink.com 1.10,2013-01-16 19:09:00,
2013-01-16 14:24:00,38.1,37.0,29.88,ENE,57,2.0,4.0,95,0.00,,,0.51,weatherlink.com 1.10,2013-01-16 19:24:00,
2013-01-16 14:39:00,37.9,37.0,29.87,East,85,1.0,4.0,95,0.00,,,0.51,weatherlink.com 1.10,2013-01-16 19:39:00,
2013-01-16 14:54:00,37.8,37.0,29.89,North,359,0.0,3.0,95,0.00,,,0.51,weatherlink.com 1.10,2013-01-16 19:54:00,
2013-01-16 15:09:00,37.8,37.0,29.89,North,355,1.0,2.0,95,0.00,,,0.51,weatherlink.com 1.10,2013-01-16 20:09:00,
2013-01-16 15:24:00,37.9,37.0,29.89,ENE,76,0.0,3.0,95,0.00,,,0.51,weatherlink.com 1.10,2013-01-16 20:24:00,
2013-01-16 15:39:00,38.0,37.0,29.90,ENE,77,2.0,3.0,96,0.00,,,0.51,weatherlink.com 1.10,2013-01-16 20:39:00,
2013-01-16 15:54:00,37.8,37.0,29.91,SE,127,0.0,5.0,96,0.00,,,0.51,weatherlink.com 1.10,2013-01-16 20:54:00,
2013-01-16 16:09:00,37.7,37.0,29.91,ESE,112,0.0,1.0,96,0.00,,,0.51,weatherlink.com 1.10,2013-01-16 21:09:00,
2013-01-16 16:24:00,37.8,37.0,29.91,ESE,112,0.0,1.0,96,0.00,,,0.51,weatherlink.com 1.10,2013-01-16 21:24:00,
2013-01-16 16:39:00,37.9,37.0,29.91,ESE,112,0.0,0.0,97,0.00,,,0.51,weatherlink.com 1.10,2013-01-16 21:39:00,
2013-01-16 16:54:00,37.9,37.0,29.93,ENE,64,0.0,0.0,96,0.00,,,0.51,weatherlink.com 1.10,2013-01-16 21:54:00,
2013-01-16 17:09:00,38.0,37.0,29.93,NE,54,0.0,0.0,96,0.00,,,0.51,weatherlink.com 1.10,2013-01-16 22:09:00,
2013-01-16 17:24:00,38.1,37.0,29.93,East,86,0.0,0.0,97,0.00,,,0.51,weatherlink.com 1.10,2013-01-16 22:24:00,
2013-01-16 17:39:00,38.1,37.0,29.93,SW,216,0.0,2.0,97,0.00,,,0.51,weatherlink.com 1.10,2013-01-16 22:39:00,
2013-01-16 17:54:00,38.1,37.0,29.93,South,175,0.0,1.0,97,0.00,,,0.51,weatherlink.com 1.10,2013-01-16 22:54:00,
2013-01-16 18:09:00,38.2,38.0,29.92,SSE,156,0.0,0.0,97,0.00,,,0.51,weatherlink.com 1.10,2013-01-16 23:09:00,
2013-01-16 18:24:00,38.2,38.0,29.93,SSE,165,0.0,0.0,97,0.00,,,0.51,weatherlink.com 1.10,2013-01-16 23:24:00,
2013-01-16 18:39:00,38.2,38.0,29.94,WSW,250,0.0,1.0,97,0.00,,,0.51,weatherlink.com 1.10,2013-01-16 23:39:00,
2013-01-16 18:54:00,38.4,38.0,29.95,NW,308,0.0,1.0,97,0.00,,,0.51,weatherlink.com 1.10,2013-01-16 23:54:00,
2013-01-16 19:09:00,38.4,38.0,29.95,NW,308,0.0,0.0,97,0.00,,,0.51,weatherlink.com 1.10,2013-01-17 00:09:00,
2013-01-16 19:24:00,38.6,38.0,29.96,NW,312,0.0,0.0,97,0.00,,,0.51,weatherlink.com 1.10,2013-01-17 00:24:00,
2013-01-16 19:39:00,38.6,38.0,29.95,NW,312,0.0,0.0,98,0.00,,,0.51,weatherlink.com 1.10,2013-01-17 00:39:00,
2013-01-16 19:54:00,38.7,38.0,29.95,NW,312,0.0,0.0,97,0.00,,,0.51,weatherlink.com 1.10,2013-01-17 00:54:00,
2013-01-16 20:09:00,38.7,38.0,29.95,NW,312,0.0,0.0,98,0.00,,,0.51,weatherlink.com 1.10,2013-01-17 01:09:00,
2013-01-16 20:24:00,38.8,38.0,29.95,NW,312,0.0,0.0,97,0.00,,,0.51,weatherlink.com 1.10,2013-01-17 01:24:00,
2013-01-16 20:39:00,38.8,38.0,29.94,NW,312,0.0,0.0,97,0.00,,,0.51,weatherlink.com 1.10,2013-01-17 01:39:00,
2013-01-16 20:54:00,38.7,38.0,29.93,NW,312,0.0,0.0,98,0.00,,,0.51,weatherlink.com 1.10,2013-01-17 01:54:00,
2013-01-16 21:09:00,38.7,38.0,29.95,NW,312,0.0,0.0,98,0.00,,,0.51,weatherlink.com 1.10,2013-01-17 02:09:00,
2013-01-16 21:24:00,38.8,38.0,29.94,NW,312,0.0,0.0,98,0.00,,,0.51,weatherlink.com 1.10,2013-01-17 02:24:00,
2013-01-16 21:39:00,38.8,38.0,29.95,NW,312,0.0,0.0,98,0.00,,,0.51,weatherlink.com 1.10,2013-01-17 02:39:00,
2013-01-16 21:54:00,38.9,38.0,29.96,NNW,327,0.0,0.0,98,0.00,,,0.51,weatherlink.com 1.10,2013-01-17 02:54:00,
2013-01-16 22:09:00,39.0,39.0,29.94,ENE,71,0.0,1.0,98,0.00,,,0.51,weatherlink.com 1.10,2013-01-17 03:09:00,
2013-01-16 22:24:00,39.0,39.0,29.95,SW,219,0.0,2.0,98,0.00,,,0.51,weatherlink.com 1.10,2013-01-17 03:24:00,
2013-01-16 22:39:00,39.0,39.0,29.96,SW,218,0.0,0.0,98,0.00,,,0.51,weatherlink.com 1.10,2013-01-17 03:39:00,
2013-01-16 22:54:00,39.1,39.0,29.95,ESE,110,0.0,3.0,98,0.00,,,0.51,weatherlink.com 1.10,2013-01-17 03:54:00,
2013-01-16 23:09:00,39.1,38.0,29.94,NNW,335,1.0,1.0,97,0.00,,,0.51,weatherlink.com 1.10,2013-01-17 04:09:00,
2013-01-16 23:24:00,39.0,38.0,29.94,ESE,114,2.0,2.0,97,0.00,,,0.51,weatherlink.com 1.10,2013-01-17 04:24:00,
2013-01-16 23:39:00,38.9,38.0,29.94,NNE,23,0.0,2.0,98,0.00,,,0.51,weatherlink.com 1.10,2013-01-17 04:39:00,
2013-01-16 23:54:00,39.1,38.0,29.95,NW,314,0.0,1.0,97,0.00,,,0.51,weatherlink.com 1.10,2013-01-17 04:54:00,